Flag for Brazil Weather past 2 weeks in Salvador, Bahia, Brazil

Now
70 °F

Light rain. Fog.


Feels Like: 70 °F
Forecast: 73 / 77 °F
Wind: 5 mph from South

Location: Salvador Aeroporto

Current Time: Sep 15, 2014 at 7:10:34 AM

Latest Report: Sep 15, 2014 at 6:00 AM


Visibility: 2 mi

Pressure: 30.09 "Hg

Humidity: 88%

Dew point: 66 °F

Location of SalvadorLocation

Historic Weather in Salvador — Graph

°F

Salvador temperature yesterday

Maximum temperature yesterday: 81 °F (at 9:00 AM)
Minimum temperature yesterday: 75 °F (at 2:00 AM)
Average temperature yesterday: 78 °F

Past Weeks' High & Low Weather Summary

 TemperatureHumidityPressure
High82 °F (Sep 1, 12:00 PM)100% (Sep 1, 5:00 AM)30.18 "Hg (Sep 1, 5:00 AM)
Low39 °F (Sep 7, 9:00 AM)54% (Sep 6, 1:00 PM)29.89 "Hg (Sep 2, 2:00 PM)
Average76 °F76%30.05 "Hg
* Reported Aug 31 6:00 AM — Sep 15 6:00 AM, Salvador, Weather by CustomWeather, © 2014

Note: Actual official high and low records may vary slightly from our data, if they occured in-between our weather recording intervals... More about our weather records

Advertising

Salvador weather history for previous 24 hours

 ConditionsComfort  
Time TempWeatherWind HumidityBarometerVisibility
6:00 AM
Sep 15
70 °FLight rain. Fog.5 mph88%30.09 "Hg2 mi
5:00 AM70 °FPartly cloudy.7 mph88%30.07 "HgN/A
4:00 AM73 °FPartly cloudy.9 mph78%30.07 "HgN/A
3:00 AM75 °FPassing clouds.12 mph78%30.07 "HgN/A
1:00 AM77 °FPassing clouds.10 mph69%30.07 "HgN/A
12:00 AM77 °FPassing clouds.10 mph69%30.09 "HgN/A
11:00 PM
Sep 14
77 °FPassing clouds.10 mph69%30.09 "HgN/A
10:00 PM77 °FPassing clouds.10 mph69%30.09 "HgN/A
9:00 PM77 °FPassing clouds.10 mph69%30.09 "HgN/A
8:00 PM77 °FPassing clouds.9 mph69%30.09 "HgN/A
7:00 PM77 °FPassing clouds.8 mph69%30.07 "HgN/A
6:00 PM77 °FPassing clouds.8 mph69%30.07 "HgN/A
5:00 PM79 °FPassing clouds.9 mph65%30.04 "HgN/A
4:00 PM79 °FPassing clouds.12 mph65%30.04 "HgN/A
3:00 PM81 °FScattered clouds.10 mph62%30.04 "HgN/A
2:00 PM81 °FScattered clouds.12 mph62%30.07 "HgN/A
1:00 PM79 °FScattered clouds.13 mph70%30.09 "HgN/A
12:00 PM81 °FScattered clouds.14 mph66%30.09 "HgN/A
11:00 AM81 °FScattered clouds.14 mph62%30.12 "HgN/A
10:00 AM79 °FScattered clouds.13 mph70%30.12 "HgN/A
9:00 AM81 °FScattered clouds.13 mph66%30.12 "HgN/A
8:00 AM79 °FScattered clouds.13 mph65%30.09 "HgN/A
7:00 AM77 °FScattered clouds.10 mph69%30.09 "HgN/A
Weather by CustomWeather, © 2014

See weather overviewHow to use our weather pages